Location: Ravensburg
(47.7866°N, 9.6124°E)
Time: 10:50:32
(UTC+02:00)

METEOR M2 - Pass Details

Date: 14 March 2026
Orbit: 817 x 824 km, 98.5° (Epoch: 18 April)

Event Time Altitude Azimuth Distance (km) Brightness Sun altitude
Rises 04:20:07 0° 18° (NNE) 3,372 ? -23.3°
Reaches altitude 10° 04:22:34 10° 24° (NNE) 2,435 ? -22.9°
Maximum altitude 04:27:47 49° 99° (E) 1,061 ? -22.1°
Drops below altitude 10° 04:32:58 10° 174° (S) 2,417 ? -21.3°
Enters shadow 04:35:17 - 179° (S) 3,303 ? -20.9°
